STARLINK-2523, 48306

Orbit data source: Space-Track

STARLINK-2523, 48306 is a payload satellite owned by SpaceX/Seattle (US) in LEO that was launched on Thu, 29 Apr 2021 UTC via an FALCON 9 launch vehicle from the Air Force Eastern Test Range (AFETR). Payload-class satellites include a variety of spacecraft equipped with specific instruments for various scientific and technological missions. These include communications satellites like Starlink; space stations such as the ISS; scientific satellites like the Hubble; Earth observation satellites from companies like Planet Labs, Umbra, and HawkEye 360; GPS; miniature CubeSats for education and research; and military/defense satellites.

Loading next visibility...
Identifier
48306, 2021-036AG
Orbit
LEO
Country
Flag of USUS
Related business
Manufacturer
SpaceX/Seattle
Mission
Operational Commercial Communications
Bus & Motor
STARLINK, Unknown motor
Mass
260 kg wet, ~248 kg dry
Launch date (UTC)
2021-04-29 (5 years ago)
Launch vehicle
FALCON 9
Launch site
Air Force Eastern Test Range (AFETR)
Object type
Payload
Rocket body
Debris
Shape & HBR
Box + 1 Pan, 10.1 m
Radar Cross Section
13.562 m², Large (>1 m²)

Expand to show TLE details & history
Last TLE update: 12 hours ago

TLE from 12 hours ago
0 STARLINK-2523
1 48306U 21036AG  25304.26536098  .00008079  00000-0  56057-3 0  9996
2 48306  53.0544 312.6265 0001188  89.5834 270.5291 15.06405133248664
Epoch: 2025-10-31T06:22Z
TLE epoch observation values (Epoch: 2025-10-31T06:22:07.188Z)
Latitude
-0.00004°
Longitude
177.28425°
Altitude
548.067 km
Speed
7.589 km/s
True Right ascension
20h 50m 30s
True Declination
0° 00' 00"
Sunlit
Object was in daylight at epoch
Visualization orbit readout
Latitude
Unknown
Longitude
Unknown
Altitude
Unknown
Speed
Unknown
Apparent Right ascension
Unknown
Apparent Declination
Unknown
Sunlit
N/A
Visualization observer readout
Local Sidereal Time
14:29:30
Azimuth
Unknown
Elevation
Unknown
Doppler factor
Unknown
Orbital elements
Apogee altitude
548.289 km
Perigee altitude
546.644 km
Semi-major axis
6,925.604 km
Eccentricity
0.00012
Inclination
53.0544°
RAAN
312.6265°
Arg. of periapsis
89.5834°
True anomaly
270.51549°
Mean anomaly
270.5291°
Eccentric anomaly
270.52229°
Mean motion
3.7658 °/min
Orbital period
95.6 mins
BSTAR
0.00056057
Loading maneuver chart data...
Computing Atmospheric mass density...
Loading historical data...
Loading historical data...
Loading historical data...
Loading historical data...
Loading historical data...
Loading historical data...
Loading historical data...

Documentation

Showing up to 5 results
|